Theta_e
330 329 334 335 329 328 331 332 330 337 345 346 341 340 340 338 335 333 333 333 334 336 337 335 331 330 329 329 331 330 332 331 330 331 329 327 326 324 323 323 322 320 320 319
337 336 335 337 335 335 335 339 342 342 342 340 339 336 335 334 333 332 332 331 331 334 334 334 330 329 330 332 332 332 330 330 328 328 325 324 322 320 320 319 319 318 318 317
337 336 334 336 339 339 339 337 342 345 341 337 335 334 332 331 329 330 329 331 330 332 333 331 329 330 330 331 331 331 328 326 321 320 320 320 320 319 319 319 318 317 316 314
338 330 332 336 334 336 338 337 336 338 339 337 334 329 328 328 328 327 327 329 331 331 331 329 331 330 330 330 330 328 324 322 321 321 322 321 320 320 319 317 316 315 313 311
334 330 335 337 336 337 339 339 336 338 335 333 330 329 328 326 326 327 327 328 330 330 329 328 329 328 327 327 326 325 324 324 323 322 321 320 318 317 317 316 314 312 309 305
333 332 333 336 332 330 331 340 332 333 333 331 329 331 331 324 325 325 326 330 330 328 328 325 324 322 320 320 320 320 321 320 320 319 317 317 317 317 316 314 310 308 305 302
329 331 331 332 329 330 335 334 332 329 327 326 329 328 323 323 323 325 326 328 328 327 326 324 322 320 321 322 321 321 320 318 315 314 313 314 314 315 314 311 309 307 302 302
330 331 331 330 329 333 332 330 329 327 325 325 323 323 322 322 324 324 325 326 326 325 323 322 322 322 322 322 320 319 317 315 314 313 312 311 313 312 311 308 308 304 302 302
332 332 326 329 328 326 328 328 326 325 324 324 323 322 321 322 322 323 322 323 322 322 321 321 321 320 320 319 316 315 314 315 314 311 310 310 310 310 308 308 307 303 303 303
332 327 327 327 325 326 327 325 323 322 322 321 321 321 322 323 321 319 319 318 317 317 320 320 318 316 317 316 315 315 314 315 313 310 310 310 310 309 308 308 307 304 305 305
326 325 326 326 326 324 321 320 319 319 320 320 321 322 321 322 319 319 320 320 320 319 318 318 318 317 317 317 316 314 315 315 312 310 309 307 308 309 309 308 307 307 307 306
334 327 327 328 324 321 320 320 320 321 321 321 321 321 321 321 319 319 319 319 319 318 318 318 317 315 316 315 316 316 316 315 312 309 308 308 307 307 307 308 307 307 305 304
327 323 322 325 321 320 321 321 320 320 321 322 322 320 320 318 318 317 318 319 319 318 317 315 315 316 313 313 314 314 315 315 313 309 308 308 308 308 308 307 306 306 305 304
322 320 323 322 321 321 321 322 322 322 322 321 321 321 318 318 319 319 318 319 318 316 313 312 313 313 312 311 311 311 311 312 311 309 309 309 308 308 308 309 309 308 308 307
321 321 322 321 321 322 322 321 321 321 321 320 320 320 320 320 321 319 319 318 314 312 311 312 312 312 311 310 309 309 309 308 309 309 308 308 308 308 308 308 307 306 306 304
321 322 322 322 323 322 321 320 319 320 319 318 318 319 319 319 319 318 318 312 312 312 312 311 310 311 310 310 310 309 309 309 308 308 308 308 309 307 306 306 305 303 303 303
323 323 323 323 322 321 320 319 319 316 317 317 318 318 316 315 314 314 313 311 311 311 311 310 311 310 310 309 309 309 308 308 308 309 309 308 307 306 305 304 302 302 301 301
323 323 323 323 321 320 321 320 318 317 317 316 317 317 315 312 312 312 312 311 311 310 310 310 310 309 309 309 309 309 308 309 308 308 307 306 305 303 302 302 301 301 300 299
322 324 323 322 320 319 319 318 318 318 317 317 317 317 316 313 313 312 310 310 311 309 310 309 310 310 310 309 308 308 306 305 304 305 302 301 301 301 300 299 298 297 299 298
323 322 320 320 320 320 320 319 319 318 318 317 317 317 317 315 313 310 309 310 309 309 310 309 309 310 308 309 309 308 307 306 305 304 303 303 302 300 297 295 296 296 296 298
322 320 320 321 321 321 321 321 319 317 316 315 314 316 317 315 311 310 309 309 309 309 310 307 309 308 307 309 309 308 308 307 306 305 304 304 301 301 299 297 296 294 294 295
319 319 320 321 321 321 321 318 316 315 314 313 314 316 316 313 311 310 309 309 309 309 309 307 308 307 305 308 310 309 308 307 307 306 304 303 303 301 300 298 297 296 295 294
320 319 320 321 320 317 315 315 313 312 312 313 314 313 312 311 310 309 309 308 308 308 308 306 306 305 302 302 306 308 307 307 306 306 303 303 302 301 301 300 298 297 297 296
322 320 321 319 316 315 315 312 312 313 312 312 311 311 310 309 309 309 309 308 306 307 305 305 305 303 302 301 303 305 304 303 302 302 301 301 301 301 300 299 299 298 297 297
323 321 319 316 315 315 313 312 313 311 309 309 310 310 309 309 310 309 309 308 309 307 304 305 304 303 303 302 302 303 302 303 302 301 302 301 301 301 300 300 299 299 298 298
321 318 316 316 315 312 312 312 311 310 309 309 309 309 309 309 309 309 309 308 307 308 304 304 303 303 303 303 303 302 302 302 302 302 302 302 301 301 300 300 299 298 298 298
317 316 315 313 312 311 312 312 311 309 310 310 310 309 309 308 308 309 307 305 301 304 304 303 303 303 303 303 304 303 302 302 302 302 302 302 302 301 301 300 299 299 298 297
Wind_Speed
3 5 5 5 5 7 4 6 6 9 13 14 12 6 9 8 7 7 7 7 6 5 3 2 4 5 6 6 8 9 8 11 15 15 16 15 13 16 17 15 15 15 14 12
4 7 9 9 8 8 9 8 9 14 11 8 10 12 9 6 5 4 5 6 6 4 3 2 3 4 5 6 6 5 7 12 16 13 13 17 17 16 15 16 16 10 8 7
5 8 7 7 2 3 5 3 12 8 7 13 10 8 6 3 3 6 8 8 8 5 2 1 2 5 5 5 6 9 13 15 17 17 17 16 15 14 12 12 10 10 9 8
6 4 8 3 3 2 8 6 6 11 16 14 12 8 5 3 3 5 7 8 6 4 1 3 5 6 7 8 10 14 16 15 14 15 13 13 12 11 10 9 8 9 9 10
7 4 2 3 5 7 4 5 6 12 13 13 14 9 3 3 2 4 6 5 2 2 3 6 9 10 10 9 12 11 10 10 10 12 14 11 8 7 7 6 8 9 10 11
5 6 6 3 8 6 3 3 15 14 15 17 13 5 3 1 1 0 5 6 2 3 6 7 6 6 9 11 11 13 13 16 15 13 10 7 5 4 5 7 9 10 12 14
5 3 1 4 10 7 5 3 20 17 15 14 8 3 7 4 3 5 4 4 7 4 4 5 7 10 12 12 17 16 17 18 14 8 2 2 1 4 5 6 6 9 10 12
4 3 4 14 8 6 4 15 17 14 12 11 13 10 8 8 10 9 6 6 8 8 10 7 7 11 12 16 14 14 17 12 7 5 4 3 2 6 7 5 8 9 9 9
1 3 4 14 4 5 11 20 15 16 15 16 14 10 8 13 13 15 14 15 16 15 14 13 16 13 15 15 13 16 13 8 8 6 6 7 6 6 6 7 6 7 7 6
6 3 6 8 9 14 16 17 18 18 19 15 16 14 14 17 14 15 15 16 16 15 14 12 11 11 12 12 11 10 5 7 10 7 6 5 6 7 6 6 5 4 3 3
5 5 10 9 12 18 20 23 23 21 20 17 17 15 18 18 18 15 13 12 12 13 13 11 9 8 8 7 7 7 5 7 10 8 8 5 6 7 7 6 5 3 2 1
4 20 4 21 20 22 25 23 23 23 19 15 14 17 17 18 15 12 13 13 12 11 11 10 8 6 3 1 3 5 4 10 11 9 9 7 8 6 4 4 2 1 2 3
6 26 8 27 26 24 23 22 19 17 16 17 15 14 16 15 15 13 12 11 9 9 8 6 3 2 3 1 2 4 5 10 11 7 5 5 6 5 3 1 2 3 4 5
30 28 23 27 24 23 22 20 18 16 15 15 15 15 16 17 13 11 9 9 9 6 5 4 5 6 8 10 9 9 9 8 7 4 3 2 3 4 3 1 0 2 5 7
25 9 23 28 28 23 23 23 21 19 19 17 16 15 15 14 12 10 10 10 7 7 7 6 5 8 8 10 11 10 9 7 7 6 3 1 2 1 3 2 2 3 3 5
16 18 30 33 29 26 26 21 20 19 18 18 17 15 13 11 10 10 9 9 6 4 7 8 9 10 9 8 5 6 6 6 4 2 3 1 1 2 3 3 4 4 5 5
27 28 30 29 31 30 27 23 20 20 18 16 16 15 14 13 12 11 10 7 3 6 7 7 9 9 6 4 4 3 2 1 0 1 3 3 3 3 4 5 5 4 6 7
20 23 32 34 33 30 24 22 20 19 18 16 16 15 15 13 13 13 10 7 7 9 8 7 7 5 4 4 4 1 4 1 2 1 2 2 3 3 4 5 5 5 5 8
21 28 29 29 29 28 26 23 20 18 17 16 15 14 14 15 13 8 4 4 10 7 7 7 6 6 5 3 3 3 4 4 4 4 4 4 5 5 5 6 6 7 6 5
24 29 30 29 27 25 24 21 18 18 17 16 15 15 16 16 12 9 5 9 10 7 5 5 7 7 5 5 7 5 5 6 6 6 5 5 4 5 6 7 7 8 9 8
31 31 29 27 24 21 19 19 18 18 16 15 15 16 17 15 15 9 6 8 8 5 4 2 6 5 3 4 8 7 5 3 4 3 3 2 4 3 4 5 6 8 9 9
30 29 27 24 21 20 20 19 17 16 15 15 16 16 17 16 15 12 8 7 7 7 5 5 7 5 2 5 8 8 6 2 2 1 1 1 1 1 2 3 4 6 7 7
28 27 25 23 23 24 21 17 15 14 16 16 17 16 14 13 13 12 9 9 7 7 8 9 8 3 1 5 6 7 7 5 5 4 3 2 2 1 1 0 2 2 4 5
27 27 26 26 25 22 19 17 15 15 14 14 13 15 16 15 13 11 8 5 5 8 8 11 10 4 4 4 7 7 6 5 5 4 4 4 3 3 2 1 1 2 3 4
26 27 28 28 23 20 17 18 19 16 14 16 17 16 15 13 10 11 9 7 7 6 8 13 11 6 4 4 4 4 5 4 4 4 4 3 3 2 2 1 0 1 3 4
26 29 28 23 20 18 18 20 20 17 19 19 20 19 15 12 9 6 6 5 9 10 11 12 10 8 6 4 3 5 5 4 3 3 3 3 3 3 2 1 1 1 2 3
31 28 24 21 18 17 17 19 18 21 19 18 17 17 13 9 7 4 4 6 9 12 16 14 11 8 6 5 3 3 5 6 5 4 3 3 3 3 3 3 3 2 3 4
Wind_Direction
44 125 109 104 139 156 153 146 198 167 167 164 168 143 101 99 83 61 43 38 29 24 28 43 20 49 60 82 93 78 76 83 86 101 111 109 105 104 104 101 94 86 84 85
72 107 131 104 91 117 118 117 86 132 135 134 129 119 103 88 78 58 36 19 12 4 2 357 37 60 88 99 110 108 109 115 113 115 116 111 107 101 97 95 93 87 79 72
142 139 151 124 53 72 102 98 146 162 150 147 132 130 113 114 74 43 32 19 5 4 31 47 109 110 114 119 119 121 114 119 113 113 114 111 107 107 99 98 94 88 86 78
141 182 191 72 341 213 114 117 126 122 147 158 146 140 140 108 58 32 27 26 20 21 89 144 132 121 119 117 128 132 124 117 117 116 111 112 117 110 105 100 95 93 81 63
149 165 82 205 181 165 200 149 150 137 143 146 147 147 148 66 50 17 1 347 309 347 46 134 131 134 129 137 129 126 118 102 100 107 114 109 106 109 111 109 108 104 86 86
152 173 192 104 158 167 200 172 172 157 155 158 166 215 119 81 140 88 16 22 164 216 167 171 173 171 159 141 132 126 115 109 105 101 99 102 97 109 113 113 104 90 95 92
134 120 138 144 146 149 191 113 158 163 162 164 176 90 126 95 62 81 69 65 92 101 142 155 150 160 148 141 124 116 113 109 95 81 83 79 128 128 120 122 104 105 97 96
120 114 184 157 134 196 104 129 143 147 149 143 133 123 105 87 89 94 98 96 84 93 102 112 152 162 138 118 116 138 120 105 129 125 112 94 115 134 132 126 126 109 100 94
334 106 114 157 96 152 144 143 142 140 139 138 132 126 117 114 110 109 106 107 106 105 106 105 109 114 130 119 106 94 81 128 132 116 111 105 116 131 141 138 131 113 98 81
166 86 140 159 130 142 148 143 142 142 140 138 133 130 131 141 127 113 108 108 105 102 103 114 106 105 117 128 123 138 159 150 144 130 107 113 130 132 144 142 141 138 119 94
94 124 125 150 151 146 143 142 141 140 137 134 139 135 137 137 133 128 123 118 118 109 104 102 104 106 114 131 161 164 195 174 153 131 84 80 136 138 146 143 153 170 215 283
179 172 136 168 157 152 144 145 146 146 147 148 147 144 138 140 136 129 132 126 120 108 104 93 91 96 130 130 241 240 217 191 162 123 82 92 102 127 139 167 182 237 276 263
151 155 144 150 151 153 148 151 155 160 163 158 156 153 155 151 146 141 138 133 126 117 100 84 62 58 90 22 53 142 168 174 154 130 90 111 96 95 94 334 284 288 291 284
142 128 118 148 156 155 153 154 155 157 160 162 158 159 160 157 154 152 146 144 127 113 100 83 90 102 105 88 103 104 108 128 145 138 134 129 59 353 341 353 218 309 309 323
147 145 155 149 149 150 151 149 145 145 148 151 154 160 163 165 160 156 149 140 127 120 100 97 115 123 119 112 105 105 107 107 129 122 93 36 282 311 49 15 40 26 14 348
146 138 145 148 151 153 154 154 149 151 154 154 152 150 153 159 158 146 154 129 105 105 134 109 123 124 117 118 101 90 90 109 120 170 230 250 324 52 69 9 10 1 346 335
134 144 151 155 157 158 160 161 157 156 162 166 165 164 156 148 144 146 157 148 136 125 140 141 133 119 116 129 120 98 95 113 122 54 94 107 98 46 32 11 8 4 349 333
173 172 164 159 159 160 164 167 169 171 172 169 171 169 163 160 164 172 178 181 166 159 163 151 153 150 132 128 138 132 343 271 107 98 90 71 46 26 36 49 43 32 17 2
171 159 161 162 162 165 169 175 180 181 181 180 179 180 177 181 187 181 120 169 168 164 162 169 179 193 208 214 224 99 66 60 77 101 90 68 64 61 60 57 44 43 52 49
161 163 164 163 167 171 175 181 185 186 188 188 190 190 187 190 188 156 146 163 162 176 200 229 224 198 204 251 192 147 75 73 102 92 83 80 77 68 57 60 58 56 54 51
160 163 165 167 172 178 184 186 187 188 188 193 199 193 191 190 177 163 190 186 178 194 213 204 172 173 182 182 178 178 160 53 83 73 72 80 50 76 60 62 58 55 53 52
163 166 169 173 178 181 183 183 185 190 193 190 185 189 189 191 194 180 194 196 201 226 222 179 169 172 177 186 204 210 207 238 276 295 346 338 51 89 51 46 50 47 47 47
168 174 178 182 179 173 173 180 187 191 188 185 184 185 187 187 180 179 195 214 229 211 195 186 185 198 228 195 194 200 215 234 252 237 262 256 242 210 201 55 33 33 35 33
177 180 182 178 175 176 179 180 177 176 182 188 192 184 178 174 179 188 193 191 190 199 195 189 185 165 112 119 171 183 200 204 196 218 222 201 205 209 194 174 51 33 32 29
182 181 177 176 179 181 183 178 173 177 178 170 167 171 169 169 183 198 214 234 223 204 203 188 189 185 171 159 152 155 167 168 169 172 175 174 182 202 193 194 218 334 25 23
176 174 175 179 184 185 184 181 179 176 167 165 167 173 171 177 183 195 215 244 216 214 193 185 185 181 179 172 189 210 209 205 190 182 200 209 214 221 231 234 271 355 8 2
170 170 173 174 177 182 185 185 182 178 173 173 171 172 174 187 200 234 240 246 218 202 189 188 187 194 205 210 207 207 209 210 212 219 229 238 241 244 244 246 258 298 332 337